| time (UTC) | temp F | wind direction | speed MPH | gust MPH | rain 1hr in | rain 24hr in | rain mn in | humidity % | barometer mb |
| 20260905140047 | 66 | 303 | 1.0 | 6.0 | 0.00 | 0.00 | 0.00 | 86 | 1012.2 |
| 20260905134546 | 65 | 2 | 1.0 | 4.0 | 0.00 | 0.00 | 0.00 | 88 | 1012.1 |
| 20260905133046 | 64 | 30 | 0.0 | 3.0 | 0.00 | 0.00 | 0.00 | 91 | 1012.1 |
| 20260905131602 | 63 | 45 | 2.0 | 7.0 | 0.00 | 0.00 | 0.00 | 92 | 1012.0 |
| 20260905130049 | 62 | 311 | 1.0 | 4.0 | 0.00 | 0.00 | 0.00 | 94 | 1012.2 |
| 20260905124545 | 62 | 329 | 1.0 | 5.0 | 0.00 | 0.00 | 0.00 | 94 | 1012.4 |
| 20260905123044 | 61 | 19 | 1.0 | 3.0 | 0.00 | 0.00 | 0.00 | 95 | 1012.4 |
| 20260905121544 | 61 | 40 | 1.0 | 4.0 | 0.00 | 0.00 | 0.00 | 95 | 1012.5 |
| 20260905120043 | 60 | 332 | 0.0 | 4.0 | 0.00 | 0.00 | 0.00 | 95 | 1012.4 |
| 20260905114543 | 60 | 313 | 0.0 | 5.0 | 0.00 | 0.00 | 0.00 | 95 | 1012.2 |
| 20260905113042 | 60 | 10 | 1.0 | 4.0 | 0.00 | 0.00 | 0.00 | 95 | 1012.1 |
| 20260905111601 | 60 | 348 | 1.0 | 4.0 | 0.00 | 0.00 | 0.00 | 94 | 1011.8 |
| 20260905110039 | 60 | 34 | 2.0 | 4.0 | 0.00 | 0.00 | 0.00 | 94 | 1011.7 |
| 20260905104538 | 60 | 340 | 1.0 | 3.0 | 0.00 | 0.00 | 0.00 | 94 | 1011.5 |
| 20260905103040 | 60 | 11 | 0.0 | 2.0 | 0.00 | 0.00 | 0.00 | 93 | 1011.4 |
| 20260905101539 | 61 | 37 | 0.0 | 1.0 | 0.00 | 0.00 | 0.00 | 93 | 1011.4 |
| 20260905100035 | 61 | 29 | 0.0 | 2.0 | 0.00 | 0.00 | 0.00 | 92 | 1011.2 |
| 20260905094534 | 61 | 1 | 1.0 | 3.0 | 0.00 | 0.00 | 0.00 | 92 | 1011.1 |
| 20260905093035 | 62 | 342 | 1.0 | 5.0 | 0.00 | 0.00 | 0.00 | 91 | 1011.0 |
| 20260905091534 | 62 | 6 | 1.0 | 5.0 | 0.00 | 0.00 | 0.00 | 91 | 1011.0 |
| 20260905090029 | 62 | 357 | 2.0 | 5.0 | 0.00 | 0.00 | 0.00 | 90 | 1011.0 |
| 20260905084529 | 63 | 309 | 2.0 | 6.0 | 0.00 | 0.00 | 0.00 | 89 | 1010.8 |
| 20260905083023 | 63 | 325 | 2.0 | 6.0 | 0.00 | 0.00 | 0.00 | 88 | 1010.8 |
| 20260905081522 | 64 | 293 | 2.0 | 7.0 | 0.00 | 0.00 | 0.00 | 88 | 1010.9 |
| 20260905080018 | 64 | 347 | 3.0 | 9.0 | 0.00 | 0.00 | 0.00 | 87 | 1010.9 |
| 20260905074516 | 64 | 320 | 3.0 | 6.0 | 0.00 | 0.00 | 0.00 | 87 | 1011.1 |
| 20260905073019 | 64 | 34 | 2.0 | 6.0 | 0.00 | 0.00 | 0.00 | 86 | 1011.0 |
| 20260905071523 | 65 | 35 | 3.0 | 6.0 | 0.00 | 0.00 | 0.00 | 86 | 1011.2 |
| 20260905070011 | 65 | 349 | 1.0 | 6.0 | 0.00 | 0.00 | 0.00 | 86 | 1011.2 |
| 20260905064508 | 65 | 337 | 3.0 | 7.0 | 0.00 | 0.00 | 0.00 | 85 | 1011.2 |
| 20260905063006 | 66 | 6 | 2.0 | 6.0 | 0.00 | 0.00 | 0.00 | 84 | 1011.4 |
| 20260905061504 | 66 | 345 | 2.0 | 8.0 | 0.00 | 0.00 | 0.00 | 83 | 1011.5 |
| 20260905060003 | 66 | 18 | 3.0 | 6.0 | 0.00 | 0.00 | 0.00 | 84 | 1011.5 |
| 20260905054602 | 66 | 300 | 2.0 | 5.0 | 0.00 | 0.01 | 0.00 | 84 | 1011.7 |
| 20260905053139 | 66 | 336 | 2.0 | 6.0 | 0.00 | 0.01 | 0.00 | 84 | 1011.8 |
| 20260905051556 | 66 | 322 | 1.0 | 5.0 | 0.00 | 0.01 | 0.00 | 86 | 1012.2 |
| 20260905050054 | 66 | 325 | 1.0 | 3.0 | 0.00 | 0.01 | 0.00 | 86 | 1012.3 |
| 20260905044552 | 66 | 319 | 0.0 | 3.0 | 0.00 | 0.01 | 0.00 | 85 | 1012.4 |
| 20260905043050 | 66 | 11 | 0.0 | 3.0 | 0.00 | 0.01 | 0.00 | 85 | 1012.5 |
| 20260905041549 | 67 | 338 | 0.0 | 2.0 | 0.00 | 0.01 | 0.00 | 84 | 1012.5 |
| 20260905040046 | 67 | 314 | 1.0 | 3.0 | 0.00 | 0.01 | 0.00 | 84 | 1012.6 |
| 20260905034543 | 67 | 28 | 0.0 | 5.0 | 0.00 | 0.01 | 0.01 | 84 | 1012.5 |
| 20260905033055 | 67 | 340 | 2.0 | 5.0 | 0.00 | 0.01 | 0.01 | 84 | 1012.5 |
| 20260905031544 | 67 | 296 | 2.0 | 5.0 | 0.00 | 0.01 | 0.01 | 84 | 1012.5 |
| 20260905030041 | 67 | 24 | 1.0 | 5.0 | 0.00 | 0.01 | 0.01 | 83 | 1012.6 |
| 20260905024541 | 68 | 349 | 1.0 | 5.0 | 0.00 | 0.01 | 0.01 | 83 | 1012.4 |
| 20260905023043 | 68 | 332 | 1.0 | 4.0 | 0.00 | 0.01 | 0.01 | 83 | 1012.4 |
| 20260905021539 | 68 | 18 | 1.0 | 4.0 | 0.00 | 0.01 | 0.01 | 82 | 1012.6 |
| 20260905020037 | 68 | 347 | 1.0 | 2.0 | 0.00 | 0.01 | 0.01 | 82 | 1012.6 |
| 20260905014536 | 68 | 10 | 1.0 | 4.0 | 0.00 | 0.01 | 0.01 | 81 | 1012.7 |
| 20260905013036 | 68 | 5 | 1.0 | 4.0 | 0.00 | 0.01 | 0.01 | 81 | 1012.6 |
| 20260905011536 | 69 | 281 | 1.0 | 3.0 | 0.00 | 0.01 | 0.01 | 81 | 1012.5 |
| 20260905010035 | 69 | 18 | 0.0 | 3.0 | 0.00 | 0.01 | 0.01 | 79 | 1012.5 |
| 20260905004535 | 69 | 346 | 1.0 | 4.0 | 0.00 | 0.01 | 0.01 | 79 | 1012.6 |
| 20260905003034 | 70 | 23 | 1.0 | 2.0 | 0.00 | 0.01 | 0.01 | 79 | 1012.5 |
| 20260905001532 | 70 | 18 | 1.0 | 3.0 | 0.00 | 0.01 | 0.01 | 79 | 1012.3 |
| 20260905000031 | 70 | 2 | 1.0 | 5.0 | 0.00 | 0.01 | 0.01 | 79 | 1012.1 |
| 20260904234530 | 71 | 293 | 1.0 | 7.0 | 0.00 | 0.01 | 0.01 | 78 | 1012.1 |
| 20260904233030 | 71 | 356 | 0.0 | 4.0 | 0.00 | 0.01 | 0.01 | 78 | 1012.1 |
| 20260904231535 | 72 | 359 | 2.0 | 5.0 | 0.00 | 0.01 | 0.01 | 77 | 1011.9 |
| 20260904230030 | 72 | 5 | 1.0 | 4.0 | 0.00 | 0.01 | 0.01 | 77 | 1012.1 |
| 20260904224529 | 73 | 323 | 1.0 | 5.0 | 0.00 | 0.01 | 0.01 | 77 | 1012.1 |
| 20260904223030 | 73 | 333 | 2.0 | 5.0 | 0.00 | 0.01 | 0.01 | 75 | 1012.1 |
| 20260904221528 | 74 | 323 | 1.0 | 4.0 | 0.00 | 0.01 | 0.01 | 75 | 1012.4 |
| 20260904220027 | 75 | 338 | 1.0 | 3.0 | 0.00 | 0.01 | 0.01 | 75 | 1012.3 |
| 20260904214539 | 75 | 334 | 0.0 | 5.0 | 0.00 | 0.01 | 0.01 | 74 | 1012.1 |
| 20260904213033 | 75 | 6 | 1.0 | 5.0 | 0.00 | 0.01 | 0.01 | 74 | 1012.0 |
| 20260904211526 | 76 | 293 | 1.0 | 4.0 | 0.00 | 0.01 | 0.01 | 74 | 1011.7 |
| 20260904210029 | 76 | 328 | 2.0 | 7.0 | 0.00 | 0.01 | 0.01 | 72 | 1011.7 |
| 20260904204526 | 75 | 326 | 3.0 | 6.0 | 0.00 | 0.01 | 0.01 | 73 | 1012.0 |
| 20260904203023 | 75 | 309 | 2.0 | 7.0 | 0.00 | 0.01 | 0.01 | 73 | 1012.3 |
| 20260904201522 | 76 | 21 | 2.0 | 9.0 | 0.00 | 0.01 | 0.01 | 72 | 1012.3 |
| 20260904200022 | 76 | 238 | 3.0 | 7.0 | 0.00 | 0.01 | 0.01 | 71 | 1012.5 |
| 20260904194521 | 75 | 313 | 2.0 | 8.0 | 0.00 | 0.01 | 0.01 | 73 | 1012.5 |
| 20260904193020 | 75 | 337 | 2.0 | 7.0 | 0.00 | 0.01 | 0.01 | 73 | 1012.5 |
| 20260904191519 | 76 | 314 | 2.0 | 7.0 | 0.00 | 0.01 | 0.01 | 74 | 1012.7 |
| 20260904190027 | 76 | 356 | 3.0 | 6.0 | 0.00 | 0.01 | 0.01 | 73 | 1012.7 |
| 20260904184518 | 76 | 335 | 1.0 | 6.0 | 0.00 | 0.01 | 0.01 | 72 | 1013.0 |
| 20260904183017 | 76 | 304 | 3.0 | 10.0 | 0.00 | 0.01 | 0.01 | 72 | 1013.0 |
| 20260904181516 | 75 | 317 | 2.0 | 12.0 | 0.00 | 0.01 | 0.01 | 73 | 1013.0 |
| 20260904180014 | 75 | 314 | 3.0 | 9.0 | 0.00 | 0.01 | 0.01 | 72 | 1013.0 |
| 20260904174523 | 75 | 304 | 3.0 | 11.0 | 0.00 | 0.01 | 0.01 | 74 | 1012.9 |
| 20260904173012 | 75 | 323 | 3.0 | 11.0 | 0.00 | 0.01 | 0.01 | 75 | 1012.9 |
| 20260904171518 | 75 | 299 | 4.0 | 11.0 | 0.00 | 0.01 | 0.01 | 72 | 1012.8 |
| 20260904170009 | 75 | 293 | 6.0 | 11.0 | 0.00 | 0.01 | 0.01 | 72 | 1012.9 |
| 20260904164508 | 75 | 1 | 5.0 | 13.0 | 0.00 | 0.01 | 0.01 | 73 | 1013.2 |
| 20260904163006 | 74 | 348 | 5.0 | 11.0 | 0.00 | 0.01 | 0.01 | 75 | 1013.2 |
| 20260904161504 | 74 | 327 | 4.0 | 12.0 | 0.00 | 0.01 | 0.01 | 75 | 1013.1 |
| 20260904160003 | 74 | 326 | 4.0 | 10.0 | 0.00 | 0.01 | 0.01 | 77 | 1013.1 |
| 20260904154502 | 74 | 22 | 3.0 | 12.0 | 0.00 | 0.01 | 0.01 | 80 | 1013.2 |
| 20260904153100 | 74 | 37 | 4.0 | 11.0 | 0.00 | 0.01 | 0.01 | 80 | 1013.3 |
| 20260904153003 | 74 | 320 | 4.0 | 11.0 | 0.00 | 0.01 | 0.01 | 80 | 1013.3 |
| 20260904151610 | 74 | 34 | 3.0 | 13.0 | 0.00 | 0.01 | 0.01 | 81 | 1013.3 |
| 20260904150119 | 73 | 343 | 2.0 | 8.0 | 0.00 | 0.01 | 0.01 | 84 | 1013.4 |
| 20260904144555 | 73 | 40 | 2.0 | 6.0 | 0.00 | 0.01 | 0.01 | 87 | 1013.4 |
| 20260904143052 | 72 | 340 | 3.0 | 9.0 | 0.00 | 0.01 | 0.01 | 88 | 1013.4 |
| 20260904141554 | 72 | 11 | 3.0 | 9.0 | 0.00 | 0.01 | 0.01 | 89 | 1013.3 |